Date String (YYYY-MM-DD hh:mm:ss) UTC,Instrument flags,absolute air pressure of the measurement (hPa),sample flow rate (lpm),inlet stack bypass flow (lpm),air temperature of the measurement (°C),ambient temperature measured by the external sensor (°C),aerosol sample conditioner tube jacket temperature (°C),OPC LED temperature (°C),internal box temperature (°C),relative humidity of the measurement (%),span deviation,mass concentration of particles derived from Lorenz-Mie calculation of OPC scattering (μg/m³),mass concentration of particles derived from Lorenz-Mie calculation of OPC scattering (μg/m³),mass concentration of particles derived from Lorenz-Mie calculation of OPC scattering (μg/m³)
DateTimeUTC,F1_M11,P_M11,Q1_M11,Q2_M11,T1_M11,T2_M11,T3_M11,T4_M11,T5_M11,U1_M11,ZSPAN_M11,X0_M11,X2_M11,X1_M11
2023-12-29 02:00:00,SystemResetWarning,0835.0,4.99,000.00,023.4,022.0,000.0,031.8,024.8,7.9,0000.0,0004.88,0002.17,0001.57
2023-12-29 02:01:00,SystemResetWarning,0834.8,5.00,000.00,023.4,022.0,000.0,031.8,024.7,7.9,0000.0,0005.35,0002.20,0001.59
2023-12-29 02:02:00,SystemResetWarning,0835.0,5.00,000.00,023.4,022.0,000.0,031.8,024.7,7.9,0000.0,0006.57,0002.25,0001.60
2023-12-29 02:03:00,SystemResetWarning,0835.1,5.00,000.00,023.4,022.0,000.0,031.8,024.7,7.9,0000.0,0006.45,0002.24,0001.61
2023-12-29 02:04:00,SystemResetWarning,0835.3,5.01,000.00,023.3,022.0,000.0,031.8,024.7,7.9,0000.0,0006.89,0002.27,0001.61
2023-12-29 02:05:00,SystemResetWarning,0835.1,5.00,000.00,023.3,022.0,000.0,031.8,024.7,7.9,0000.0,0006.99,0002.28,0001.62
2023-12-29 02:06:00,SystemResetWarning,0834.8,5.01,000.00,023.3,021.9,000.0,031.7,024.6,7.9,0000.0,0006.99,0002.25,0001.62
2023-12-29 02:07:00,SystemResetWarning,0835.2,5.00,000.00,023.3,021.9,000.0,031.7,024.6,7.9,0000.0,0007.33,0002.21,0001.61
2023-12-29 02:08:00,SystemResetWarning,0834.9,5.01,000.00,023.3,021.9,000.0,031.7,024.6,7.9,0000.0,0007.41,0002.18,0001.61
2023-12-29 02:09:00,SystemResetWarning,0834.6,5.01,000.00,023.3,021.9,000.0,031.7,024.6,7.9,0000.0,0007.40,0002.19,0001.61
2023-12-29 02:10:00,SystemResetWarning,0834.7,5.00,000.00,023.3,021.9,000.0,031.7,024.6,7.9,0000.0,0007.45,0002.21,0001.62
2023-12-29 02:11:00,SystemResetWarning,0834.7,5.00,000.00,023.3,021.9,000.0,031.7,024.6,7.9,0000.0,0007.29,0002.18,0001.62
2023-12-29 02:12:00,SystemResetWarning,0834.7,5.00,000.00,023.2,021.9,000.0,031.7,024.6,7.9,0000.0,0007.08,0002.22,0001.64
2023-12-29 02:13:00,SystemResetWarning,0834.6,4.99,000.00,023.2,021.9,000.0,031.6,024.6,7.9,0000.0,0005.52,0002.15,0001.63
2023-12-29 02:14:00,SystemResetWarning,0834.6,5.00,000.00,023.2,021.8,000.0,031.6,024.6,7.9,0000.0,0005.44,0002.16,0001.64
2023-12-29 02:15:00,SystemResetWarning,0834.7,5.00,000.00,023.2,021.8,000.0,031.6,024.6,7.9,0000.0,0005.26,0002.14,0001.64
2023-12-29 02:16:00,SystemResetWarning,0834.7,5.00,000.00,023.2,021.8,000.0,031.6,024.6,7.9,0000.0,0005.63,0002.12,0001.63
2023-12-29 02:17:00,SystemResetWarning,0834.8,5.01,000.00,023.2,021.9,000.0,031.6,024.6,7.9,0000.0,0005.91,0002.09,0001.62
2023-12-29 02:18:00,SystemResetWarning,0834.8,4.99,000.00,023.2,021.8,000.0,031.6,024.5,7.9,0000.0,0005.96,0002.13,0001.60
2023-12-29 02:19:00,SystemResetWarning,0834.6,5.00,000.00,023.2,021.8,000.0,031.6,024.5,8.0,0000.0,0005.82,0002.16,0001.58
2023-12-29 02:20:00,SystemResetWarning,0834.6,5.00,000.00,023.2,021.8,000.0,031.6,024.5,8.0,0000.0,0005.89,0002.12,0001.55
2023-12-29 02:21:00,SystemResetWarning,0834.5,5.00,000.00,023.2,021.8,000.0,031.5,024.5,8.1,0000.0,0006.70,0002.07,0001.53
2023-12-29 02:22:00,SystemResetWarning,0834.7,5.00,000.00,023.1,021.8,000.0,031.5,024.5,8.0,0000.0,0006.80,0002.09,0001.51
2023-12-29 02:23:00,SystemResetWarning,0834.6,5.00,000.00,023.1,021.8,000.0,031.5,024.5,8.1,0000.0,0006.65,0002.02,0001.49
2023-12-29 02:24:00,SystemResetWarning,0834.6,5.01,000.00,023.1,021.7,000.0,031.5,024.4,8.1,0000.0,0006.95,0002.03,0001.46
2023-12-29 02:25:00,SystemResetWarning,0834.8,5.00,000.00,023.1,021.7,000.0,031.5,024.4,8.1,0000.0,0007.68,0002.02,0001.44
2023-12-29 02:26:00,SystemResetWarning,0834.8,5.00,000.00,023.1,021.7,000.0,031.5,024.4,8.1,0000.0,0007.70,0001.98,0001.41
2023-12-29 02:27:00,SystemResetWarning,0834.6,5.00,000.00,023.1,021.7,000.0,031.5,024.4,8.2,0000.0,0008.30,0002.01,0001.40
2023-12-29 02:28:00,SystemResetWarning,0835.0,5.00,000.00,023.1,021.7,000.0,031.5,024.4,8.2,0000.0,0008.05,0002.03,0001.40
2023-12-29 02:29:00,SystemResetWarning,0835.0,5.00,000.00,023.0,021.7,000.0,031.5,024.4,8.1,0000.0,0007.96,0001.99,0001.39
2023-12-29 02:30:00,SystemResetWarning,0835.1,5.00,000.00,023.0,021.7,000.0,031.4,024.4,8.0,0000.0,0007.64,0001.92,0001.39
2023-12-29 02:31:00,SystemResetWarning,0834.9,4.99,000.00,023.0,021.6,000.0,031.4,024.3,8.0,0000.0,0007.52,0001.92,0001.39
2023-12-29 02:32:00,SystemResetWarning,0835.1,5.00,000.00,023.0,021.6,000.0,031.4,024.3,8.0,0000.0,0006.94,0001.94,0001.39
2023-12-29 02:33:00,SystemResetWarning,0835.0,5.00,000.00,023.0,021.6,000.0,031.4,024.3,8.0,0000.0,0007.61,0001.92,0001.38
2023-12-29 02:34:00,SystemResetWarning,0835.0,5.00,000.00,023.0,021.6,000.0,031.4,024.3,8.0,0000.0,0007.55,0001.88,0001.38
2023-12-29 02:35:00,SystemResetWarning,0835.1,5.00,000.00,023.0,021.6,000.0,031.4,024.3,8.1,0000.0,0007.37,0001.86,0001.38
2023-12-29 02:36:00,SystemResetWarning,0835.0,5.00,000.00,023.0,021.6,000.0,031.4,024.3,8.1,0000.0,0007.38,0001.84,0001.38
2023-12-29 02:37:00,SystemResetWarning,0835.1,5.00,000.00,022.9,021.5,000.0,031.3,024.3,8.1,0000.0,0007.38,0001.86,0001.37
2023-12-29 02:38:00,SystemResetWarning,0835.0,5.00,000.00,022.9,021.5,000.0,031.3,024.2,8.1,0000.0,0006.69,0001.82,0001.35
2023-12-29 02:39:00,SystemResetWarning,0835.0,5.00,000.00,022.9,021.5,000.0,031.3,024.2,8.2,0000.0,0006.75,0001.81,0001.34
2023-12-29 02:40:00,SystemResetWarning,0834.8,5.00,000.00,022.9,021.5,000.0,031.3,024.2,8.1,0000.0,0006.70,0001.81,0001.34
2023-12-29 02:41:00,SystemResetWarning,0834.5,5.00,000.00,022.9,021.5,000.0,031.3,024.2,8.1,0000.0,0007.01,0001.80,0001.32
2023-12-29 02:42:00,SystemResetWarning,0834.5,5.00,000.00,022.9,021.5,000.0,031.3,024.2,8.0,0000.0,0007.38,0001.79,0001.31
2023-12-29 02:43:00,SystemResetWarning,0834.5,5.01,000.00,022.8,021.4,000.0,031.3,024.2,8.0,0000.0,0007.40,0001.78,0001.30
2023-12-29 02:44:00,SystemResetWarning,0834.5,4.99,000.00,022.8,021.4,000.0,031.3,024.1,8.1,0000.0,0006.19,0001.76,0001.30
2023-12-29 02:45:00,SystemResetWarning,0834.5,4.99,000.00,022.8,021.4,000.0,031.2,024.1,8.2,0000.0,0006.11,0001.75,0001.30
2023-12-29 02:46:00,SystemResetWarning,0834.5,5.00,000.00,022.8,021.4,000.0,031.2,024.1,8.2,0000.0,0006.08,0001.74,0001.31
2023-12-29 02:47:00,SystemResetWarning,0834.5,5.00,000.00,022.8,021.4,000.0,031.2,024.1,8.2,0000.0,0005.50,0001.77,0001.32
2023-12-29 02:48:00,SystemResetWarning,0834.5,4.99,000.00,022.8,021.4,000.0,031.2,024.1,8.3,0000.0,0005.60,0001.77,0001.33
2023-12-29 02:49:00,SystemResetWarning,0834.4,5.00,000.00,022.8,021.4,000.0,031.2,024.1,8.3,0000.0,0005.12,0001.75,0001.33
2023-12-29 02:50:00,SystemResetWarning,0834.4,5.01,000.00,022.8,021.3,000.0,031.2,024.1,8.3,0000.0,0004.42,0001.71,0001.34
2023-12-29 02:51:00,SystemResetWarning,0834.4,5.00,000.00,022.7,021.3,000.0,031.2,024.0,8.6,0000.0,0004.32,0001.69,0001.34
2023-12-29 02:52:00,SystemResetWarning,0834.5,5.00,000.00,022.7,021.3,000.0,031.1,024.0,8.6,0000.0,0004.10,0001.72,0001.36
2023-12-29 02:53:00,SystemResetWarning,0834.5,5.00,000.00,022.7,021.3,000.0,031.1,024.0,8.5,0000.0,0003.64,0001.76,0001.38
2023-12-29 02:54:00,SystemResetWarning,0834.4,5.00,000.00,022.7,021.3,000.0,031.1,024.0,8.3,0000.0,0003.63,0001.76,0001.39
2023-12-29 02:55:00,SystemResetWarning,0834.4,5.00,000.00,022.7,021.3,000.0,031.1,023.9,8.2,0000.0,0003.60,0001.75,0001.40
2023-12-29 02:56:00,SystemResetWarning,0834.4,5.01,000.00,022.7,021.3,000.0,031.1,023.9,8.2,0000.0,0003.66,0001.76,0001.39
2023-12-29 02:57:00,SystemResetWarning,0834.3,5.00,000.00,022.6,021.2,000.0,031.1,023.9,8.2,0000.0,0003.87,0001.78,0001.41
2023-12-29 02:58:00,SystemResetWarning,0834.4,5.00,000.00,022.6,021.2,000.0,031.1,023.9,8.3,0000.0,0003.89,0001.79,0001.42
2023-12-29 02:59:00,SystemResetWarning,0834.4,5.00,000.00,022.6,021.2,000.0,031.0,023.9,8.3,0000.0,0003.53,0001.82,0001.43
